Clermont County, Batavia, OH

4:39 AM EDT on May 24, 2017 (GMT -0400)
Clermont County, Batavia

Weather History for KI69 - March, 2014

Change the Weather History Date:

Wednesday, March 5, 2014

  Actual Average (KLUK) Record (KLUK)
Temperature  
Mean Temperature 27 °F -  
Max Temperature 35 °F 50 °F 80 °F (1983)
Min Temperature 19 °F 31 °F 1 °F (1978)
Degree Days  
Heating Degree Days 38    
Moisture  
Dew Point 19 °F    
Average Humidity 71    
Maximum Humidity 100    
Minimum Humidity 48    
Precipitation  
Precipitation 0.00 in - - ()
Sea Level Pressure  
Sea Level Pressure 30.26 in    
Wind  
Wind Speed 3 mph (ENE)    
Max Wind Speed 13 mph    
Max Gust Speed 18 mph    
Visibility 10 miles    
Events      
Averages and records for this station are not official NWS values.
T = Trace of Precipitation, MM = Missing Value Source: NWS Daily Summary

Daily Weather History Graph

Daily Weather History Graph

Search for Another Location

Airport or City:

Trip Planner

Search our weather history database for the weather conditions in past years. The results will help you decide how hot, cold, wet, or windy it might be!

Date:

Astronomy

Mar. 05, 2014 Rise Set
Actual Time 7:03 AM EST 6:33 PM EST
Civil Twilight 6:36 AM EST 7:00 PM EST
Nautical Twilight 6:05 AM EST 7:31 PM EST
Astronomical Twilight 5:34 AM EST 8:02 PM EST
Moon 9:30 AM EST (3/5) 11:38 PM EST (3/5)
Length of Visible Light 12h 23m
Length of Day
11h 30m
Waxing Crescent, 23% of the Moon is Illuminated
Mar 5
Waxing Crescent
Mar 8
First Quarter
Mar 16
Full
Mar 23
Last Quarter
Mar 30
New

Hourly Weather History & Observations

Time (EST) Temp. Windchill Dew Point Humidity Pressure Visibility Wind Dir Wind Speed Gust Speed Precip Events Conditions
12:18 AM 26.6 °F - 19.4 °F 74% 30.19 in 10.0 mi Calm Calm - N/A   Clear
12:38 AM 24.8 °F - 19.4 °F 80% 30.20 in 10.0 mi Calm Calm - N/A   Clear
12:57 AM 26.6 °F - 19.4 °F 74% 30.20 in 10.0 mi Calm Calm - N/A   Clear
1:18 AM 23.0 °F - 19.4 °F 86% 30.19 in 10.0 mi Calm Calm - N/A   Clear
1:38 AM 23.0 °F - 19.4 °F 86% 30.18 in 10.0 mi Calm Calm - N/A   Clear
1:57 AM 23.0 °F - 21.2 °F 93% 30.19 in 10.0 mi Calm Calm - N/A   Clear
2:18 AM 23.0 °F - 21.2 °F 93% 30.19 in 10.0 mi Calm Calm - N/A   Clear
2:38 AM 23.0 °F - 19.4 °F 86% 30.19 in 10.0 mi Calm Calm - N/A   Clear
2:57 AM 23.0 °F - 19.4 °F 86% 30.18 in 10.0 mi Calm Calm - N/A   Clear
3:18 AM 21.2 °F - 19.4 °F 93% 30.19 in 10.0 mi Calm Calm - N/A   Clear
3:38 AM 23.0 °F - 19.4 °F 86% 30.18 in 10.0 mi Calm Calm - N/A   Clear
3:57 AM 21.2 °F - 17.6 °F 86% 30.18 in 10.0 mi Calm Calm - N/A   Clear
4:18 AM 21.2 °F - 19.4 °F 93% 30.18 in 10.0 mi Calm Calm - N/A   Clear
4:38 AM 19.4 °F - 17.6 °F 93% 30.18 in 10.0 mi Calm Calm - N/A   Clear
4:57 AM 21.2 °F - 19.4 °F 93% 30.19 in 10.0 mi Calm Calm - N/A   Clear
5:18 AM 19.4 °F - 19.4 °F 100% 30.20 in 10.0 mi Calm Calm - N/A   Clear
5:38 AM 19.4 °F - 17.6 °F 93% 30.22 in 10.0 mi Calm Calm - N/A   Clear
5:57 AM 19.4 °F - 17.6 °F 93% 30.23 in 10.0 mi Calm Calm - N/A   Clear
6:18 AM 19.4 °F - 17.6 °F 93% 30.24 in 10.0 mi Calm Calm - N/A   Clear
6:38 AM 19.4 °F - 17.6 °F 93% 30.24 in 10.0 mi Calm Calm - N/A   Clear
6:57 AM 19.4 °F - 17.6 °F 93% 30.24 in 10.0 mi Calm Calm - N/A   Clear
7:18 AM 19.4 °F - 17.6 °F 93% 30.24 in 10.0 mi Calm Calm - N/A   Clear
7:38 AM 19.4 °F - 17.6 °F 93% 30.25 in 10.0 mi Calm Calm - N/A   Clear
7:57 AM 19.4 °F - 19.4 °F 100% 30.26 in 10.0 mi Calm Calm - N/A   Clear
8:18 AM 21.2 °F - 19.4 °F 93% 30.27 in 10.0 mi Calm Calm - N/A   Clear
8:38 AM 23.0 °F 18.4 °F 19.4 °F 86% 30.28 in 10.0 mi NNE 3.5 mph - N/A   Clear
8:57 AM 26.6 °F 22.6 °F 19.4 °F 74% 30.28 in 10.0 mi ENE 3.5 mph - N/A   Clear
9:18 AM 26.6 °F 21.2 °F 19.4 °F 74% 30.29 in 10.0 mi North 4.6 mph - N/A   Clear
9:38 AM 28.4 °F 23.3 °F 19.4 °F 69% 30.29 in 10.0 mi NE 4.6 mph - N/A   Clear
9:57 AM 30.2 °F 25.4 °F 17.6 °F 60% 30.29 in 10.0 mi NE 4.6 mph - N/A   Clear
10:18 AM 32.0 °F 27.5 °F 17.6 °F 55% 30.29 in 10.0 mi East 4.6 mph - N/A   Clear
10:38 AM 32.0 °F 24.8 °F 17.6 °F 55% 30.29 in 10.0 mi ESE 8.1 mph - N/A   Clear
10:58 AM 32.0 °F 27.5 °F 17.6 °F 55% 30.29 in 10.0 mi ESE 4.6 mph - N/A   Clear
11:18 AM 32.0 °F 27.5 °F 17.6 °F 55% 30.29 in 10.0 mi East 4.6 mph - N/A   Clear
11:38 AM 33.8 °F 29.6 °F 17.6 °F 52% 30.30 in 10.0 mi East 4.6 mph - N/A   Clear
11:58 AM 33.8 °F 27.7 °F 17.6 °F 52% 30.30 in 10.0 mi East 6.9 mph - N/A   Clear
12:18 PM 33.8 °F 27.7 °F 17.6 °F 52% 30.29 in 10.0 mi ENE 6.9 mph - N/A   Clear
12:38 PM 33.8 °F 26.4 °F 17.6 °F 52% 30.29 in 10.0 mi ENE 9.2 mph - N/A   Clear
12:58 PM 33.8 °F 26.4 °F 17.6 °F 52% 30.28 in 10.0 mi NE 9.2 mph - N/A   Clear
1:18 PM 33.8 °F 26.4 °F 17.6 °F 52% 30.28 in 10.0 mi NE 9.2 mph - N/A   Clear
1:38 PM 33.8 °F 25.8 °F 17.6 °F 52% 30.26 in 10.0 mi ENE 10.4 mph - N/A   Clear
1:58 PM 35.6 °F 29.2 °F 17.6 °F 48% 30.26 in 10.0 mi East 8.1 mph - N/A   Clear
2:18 PM 35.6 °F 29.2 °F 19.4 °F 52% 30.25 in 10.0 mi ENE 8.1 mph - N/A   Clear
2:38 PM 35.6 °F 29.9 °F 19.4 °F 52% 30.25 in 10.0 mi NE 6.9 mph - N/A   Clear
2:58 PM 35.6 °F 29.2 °F 19.4 °F 52% 30.25 in 10.0 mi ENE 8.1 mph - N/A   Clear
3:18 PM 35.6 °F 29.2 °F 19.4 °F 52% 30.25 in 10.0 mi NE 8.1 mph - N/A   Clear
3:37 PM 35.6 °F 29.9 °F 19.4 °F 52% 30.26 in 10.0 mi East 6.9 mph - N/A   Clear
3:58 PM 35.6 °F 29.2 °F 21.2 °F 56% 30.26 in 10.0 mi ENE 8.1 mph - N/A   Clear
4:18 PM 35.6 °F 30.7 °F 19.4 °F 52% 30.27 in 10.0 mi ENE 5.8 mph - N/A   Clear
4:37 PM 35.6 °F 29.9 °F 19.4 °F 52% 30.27 in 10.0 mi East 6.9 mph - N/A   Clear
4:58 PM 35.6 °F 29.9 °F 19.4 °F 52% 30.27 in 10.0 mi East 6.9 mph - N/A   Clear
5:18 PM 33.8 °F 27.0 °F 19.4 °F 56% 30.28 in 10.0 mi ENE 8.1 mph - N/A   Clear
5:37 PM 33.8 °F 27.7 °F 19.4 °F 56% 30.28 in 10.0 mi ENE 6.9 mph - N/A   Clear
5:58 PM 33.8 °F 27.7 °F 19.4 °F 56% 30.29 in 10.0 mi ENE 6.9 mph - N/A   Clear
6:18 PM 33.8 °F 27.7 °F 19.4 °F 56% 30.30 in 10.0 mi ENE 6.9 mph - N/A   Clear
6:37 PM 32.0 °F 24.8 °F 19.4 °F 60% 30.29 in 10.0 mi NE 8.1 mph - N/A   Clear
6:58 PM 32.0 °F 25.6 °F 17.6 °F 55% 30.29 in 10.0 mi ENE 6.9 mph - N/A   Clear
7:18 PM 32.0 °F 26.4 °F 19.4 °F 60% 30.30 in 10.0 mi NE 5.8 mph - N/A   Clear
7:37 PM 32.0 °F 23.0 °F 21.2 °F 64% 30.30 in 10.0 mi NE 11.5 mph 17.3 mph N/A   Clear
7:58 PM 32.0 °F 23.0 °F 21.2 °F 64% 30.31 in 10.0 mi ENE 11.5 mph 18.4 mph N/A   Clear
8:18 PM 30.2 °F 20.8 °F 21.2 °F 69% 30.32 in 10.0 mi NE 11.5 mph 18.4 mph N/A   Clear
8:37 PM 30.2 °F 20.2 °F 23.0 °F 75% 30.32 in 10.0 mi NE 12.7 mph 18.4 mph N/A   Clear
8:58 PM 30.2 °F 23.4 °F 23.0 °F 75% 30.31 in 10.0 mi NE 6.9 mph - N/A   Clear
9:17 PM 30.2 °F 23.4 °F 23.0 °F 75% 30.32 in 10.0 mi NE 6.9 mph - N/A   Clear
9:38 PM 30.2 °F 21.3 °F 21.2 °F 69% 30.32 in 10.0 mi ENE 10.4 mph 17.3 mph N/A   Clear
9:58 PM 28.4 °F 20.4 °F 21.2 °F 74% 30.33 in 10.0 mi NE 8.1 mph - N/A   Clear
10:17 PM 28.4 °F 20.4 °F 21.2 °F 74% 30.33 in 10.0 mi ENE 8.1 mph - N/A   Clear
10:38 PM 28.4 °F 20.4 °F 21.2 °F 74% 30.33 in 10.0 mi ENE 8.1 mph - N/A   Clear
10:58 PM 28.4 °F 19.7 °F 21.2 °F 74% 30.32 in 10.0 mi NE 9.2 mph - N/A   Clear
11:17 PM 28.4 °F 20.4 °F 21.2 °F 74% 30.32 in 10.0 mi ENE 8.1 mph - N/A   Clear
11:38 PM 28.4 °F 22.2 °F 21.2 °F 74% 30.32 in 10.0 mi ENE 5.8 mph - N/A   Clear
11:58 PM 28.4 °F 20.4 °F 21.2 °F 74% 30.32 in 10.0 mi ENE 8.1 mph - N/A   Clear